Regional Weather Roundup
Issued by NWS Spokane, WA

Home | Current Version | Previous Version | Text Only | Print | Product List | Glossary On
Versions: 1 2 3 4 5 6 7 8 9 10 11 12 13 14 15 16 17 18 19 20 21 22 23 24 25 26 27 28 29 30 31 32 33 34 35 36 37 38 39 40 41 42 43 44 45 46 47 48 49 50
000
NZUS01 KOTX 050010
RWROTX
EASTERN WASHINGTON/NORTHERN IDAHO ROUNDUP
NATIONAL WEATHER SERVICE, SPOKANE WA
500 PM PDT MON MAY 04 2015

Note: "fair" indicated few or no clouds below 12,000 feet with no
significant weather and/or obstructions to visibility.

...NORTHEAST WASHINGTON AND NORTHERN IDAHO PANHANDLE...

CITY           SKY/WX    TMP DP  RH WIND       PRES   REMARKS
SPOKANE INTL   MOSUNNY   74  25  16 SW15      29.76F
SPOKANE DOWNTO SUNNY     77  23  13 SE9       29.75F
COEUR D ALENE  SUNNY     73  27  17 W3        29.77F
DEER PARK      SUNNY     73  32  22 S7        29.76F
SANDPOINT      SUNNY     72  32  23 E6        29.75F
BONNERS FERRY  FAIR      73  25  16 SW5       29.75F

...SOUTHEAST WASHINGTON AND SOUTHERN IDAHO PANHANDLE...

CITY           SKY/WX    TMP DP  RH WIND       PRES   REMARKS
WALLA WALLA    SUNNY     80  26  13 W14       29.75F
PULLMAN/MOSCOW SUNNY     73  30  20 NW13      29.80F
LEWISTON       SUNNY     81  30  15 NW7       29.72F
LOWELL           N/A     78  43  28 CALM      29.68F

...COLUMBIA BASIN...

CITY           SKY/WX    TMP DP  RH WIND       PRES   REMARKS
EPHRATA        SUNNY     78  28  16 SE13      29.69F
MOSES LAKE     SUNNY     79  30  16 S13       29.71F
TRI CITIES     SUNNY     83  30  14 SW20G26   29.71F
HERMISTON      SUNNY     80  29  15 W22G28    29.74F
PENDLETON      SUNNY     75  37  25 NW13      29.77S

...EAST SLOPES CASCADES...

CITY           SKY/WX    TMP DP  RH WIND       PRES   REMARKS
THE DALLES     SUNNY     66  39  37 NW29G39   29.87R
YAKIMA         MOSUNNY   81  27  14 SW13G24   29.72S
ELLENSBURG     SUNNY     68  42  38 NW33G40   29.77R
WENATCHEE      PTSUNNY   78  30  17 CALM      29.68F
OMAK           MOSUNNY   75  30  19 S14G23    29.67F

...SOUTHERN BRITISH COLUMBIA...

CITY           SKY/WX    TMP DP  RH WIND       PRES   REMARKS
PENTICTON      LGT RAIN  73  36  25 S13       29.64F
CASTLEGAR      MOSUNNY   77  30  18 SW9       29.69F
CRANBROOK      MOSUNNY   72  21  15 S14G23    29.75F

...WESTERN MONTANA...

CITY           SKY/WX    TMP DP  RH WIND       PRES   REMARKS
MISSOULA       MOSUNNY   74  26  16 NE3       29.78F

...NEIGHBORING CITIES...

CITY           SKY/WX    TMP DP  RH WIND       PRES   REMARKS
SEATTLE        MOSUNNY   61  42  49 SW17G25   29.95F
CALGARY        MOSUNNY   70  21  16 S15       29.76F



USA.gov is the U.S. government's official web portal to all federal, state and local government web resources and services.